CW5277 Fort Myers FL US current weather conditions

sailwx.info

Wind from 105 at 2 knots gusting 6

Air temperature 30.6° C
Dewpoint 27.3° C

Last reported at 2020-Aug-13 13:10 UTC.
Time now 2020-Aug-13 14:08 UTC

Location: N 26°31' W 081°58'.
View on Google Maps.

See reports from other nearby stations

  
Tides and Currents Weather Stations Pressure Air Temp Water Temp Dewpoint Dewpoint Depression Visibility Wind Speed Wind Dir Waves Ship Positions
date/time (UTC)wind fromknots sea level pressurealtimeterstation pressurevisibilityair tempwater tempwave heightnotes
2020-Aug-13 13:10 105 2 gusting 6 30.6
2020-Aug-13 13:01 134 2 gusting 8 30.6
2020-Aug-13 12:55 121 1 gusting 8 30.0
2020-Aug-13 12:50 146 3 gusting 6 30.0
2020-Aug-13 12:47 107 1 gusting 6 30.0
2020-Aug-13 12:40 094 2 gusting 6 29.4
2020-Aug-13 12:31 116 1 gusting 7 29.4
2020-Aug-13 12:25 104 1 gusting 7 28.9
2020-Aug-13 12:21 120 2 gusting 6 28.9
2020-Aug-13 12:17 098 1 gusting 5 28.3
2020-Aug-13 12:10 091 1 gusting 5 27.8
2020-Aug-13 12:05 090 0 gusting 3 27.2
2020-Aug-13 11:55 085 0 gusting 2 26.7
2020-Aug-13 11:50 085 0 gusting 2 26.7
2020-Aug-13 11:47 26.7
2020-Aug-13 11:40 26.1
2020-Aug-13 11:35 26.1
2020-Aug-13 11:31 085 26.1
2020-Aug-13 11:26 26.1
2020-Aug-13 11:21 085 26.1
2020-Aug-13 11:16 085 0 gusting 3 26.1
2020-Aug-13 11:10 085 0 gusting 2 26.1
2020-Aug-13 11:05 085 25.6
2020-Aug-13 11:01 25.6
2020-Aug-13 10:56 085 0 gusting 3 25.6
2020-Aug-13 10:50 25.6
2020-Aug-13 10:40 25.6
2020-Aug-13 10:35 26.1
2020-Aug-13 10:31 26.1
2020-Aug-13 10:25 26.1
2020-Aug-13 10:16 085 0 gusting 3 26.1
2020-Aug-13 10:10 085 26.1
2020-Aug-13 10:05 085 0 gusting 2 26.1
2020-Aug-13 10:01 085 0 gusting 2 26.1
2020-Aug-13 10:00 085 0 gusting 2 26.1
2020-Aug-13 09:50 085 0 gusting 2 26.1
2020-Aug-13 09:46 26.1
2020-Aug-13 09:40 085 26.1
2020-Aug-13 09:35 26.1
2020-Aug-13 09:25 085 0 gusting 2 26.1
2020-Aug-13 09:20 085 1 gusting 2 26.1
2020-Aug-13 09:16 085 0 gusting 2 26.1
2020-Aug-13 09:11 085 0 gusting 4 26.1
2020-Aug-13 09:06 085 1 gusting 5 26.1
2020-Aug-13 09:03 084 0 gusting 2 26.1
2020-Aug-13 09:00 084 0 gusting 2 26.1
2020-Aug-13 08:50 084 0 gusting 3 26.1
2020-Aug-13 08:45 084 0 gusting 3 26.1
2020-Aug-13 08:40 084 26.1
2020-Aug-13 08:35 084 26.1
2020-Aug-13 08:31 083 0 gusting 3 26.1
2020-Aug-13 08:25 083 1 gusting 3 26.1
2020-Aug-13 08:20 083 0 gusting 2 26.1
2020-Aug-13 08:15 26.1
2020-Aug-13 08:10 083 26.1
2020-Aug-13 08:05 26.1
2020-Aug-13 07:55 26.1
2020-Aug-13 07:50 26.1
2020-Aug-13 07:48 083 26.1
2020-Aug-13 07:40 26.1
2020-Aug-13 07:31 083 0 gusting 3 26.1
2020-Aug-13 07:25 082 0 gusting 2 26.1
2020-Aug-13 07:21 082 26.1
2020-Aug-13 07:16 082 26.1
2020-Aug-13 07:15 082 26.1
2020-Aug-13 07:10 082 26.7
2020-Aug-13 07:03 26.7
2020-Aug-13 06:55 082 0 gusting 2 26.7
2020-Aug-13 06:50 082 0 gusting 3 26.7
2020-Aug-13 06:46 082 0 gusting 3 26.7
2020-Aug-13 06:41 081 26.7
2020-Aug-13 06:35 081 0 gusting 3 26.7
2020-Aug-13 06:31 081 26.7
2020-Aug-13 06:26 081 0 gusting 3 26.7
2020-Aug-13 06:20 081 0 gusting 3 26.7
2020-Aug-13 06:16 079 0 gusting 3 26.7
2020-Aug-13 06:11 079 0 gusting 3 26.7
2020-Aug-13 06:10 079 0 gusting 2 26.7
2020-Aug-13 06:02 080 0 gusting 3 26.7
2020-Aug-13 05:55 080 0 gusting 3 26.7
2020-Aug-13 05:50 079 26.7
2020-Aug-13 05:47 079 26.7
2020-Aug-13 05:40 080 26.7
2020-Aug-13 05:33 26.7
2020-Aug-13 05:25 079 0 gusting 3 26.7
2020-Aug-13 05:20 079 27.2
2020-Aug-13 05:17 079 0 gusting 2 26.7
2020-Aug-13 05:15 079 0 gusting 2 27.2
2020-Aug-13 05:05 079 0 gusting 3 27.2
2020-Aug-13 05:02 079 0 gusting 3 27.2
2020-Aug-13 04:55 079 0 gusting 3 27.2
2020-Aug-13 04:50 089 0 gusting 3 27.2
2020-Aug-13 04:47 086 1 gusting 5 27.2
2020-Aug-13 04:40 081 0 gusting 5 27.2
2020-Aug-13 04:31 103 0 gusting 2 27.2
2020-Aug-13 04:25 103 27.2
2020-Aug-13 04:20 033 27.8
2020-Aug-13 04:16 032 0 gusting 2 27.8
2020-Aug-13 04:10 032 0 gusting 3 27.8
2020-Aug-13 04:05 032 0 gusting 3 27.8
2020-Aug-13 04:01 032 0 gusting 2 27.8
2020-Aug-13 03:56 032 27.8
2020-Aug-13 03:50 27.8
2020-Aug-13 03:47 032 27.8
2020-Aug-13 03:40 27.8
2020-Aug-13 03:30 27.8
2020-Aug-13 03:25 032 0 gusting 2 27.8
2020-Aug-13 03:20 27.8
2020-Aug-13 03:16 032 0 gusting 2 27.8
2020-Aug-13 03:10 032 0 gusting 3 27.8
2020-Aug-13 03:01 033 1 gusting 4 27.8
2020-Aug-13 02:55 035 0 gusting 2 27.8
2020-Aug-13 02:51 035 27.8
2020-Aug-13 02:46 27.8
2020-Aug-13 02:45 035 27.8
2020-Aug-13 02:35 035 0 gusting 3 27.8
2020-Aug-13 02:31 032 0 gusting 3 27.8
2020-Aug-13 02:25 032 0 gusting 3 27.8
2020-Aug-13 02:20 040 0 gusting 4 27.8
2020-Aug-13 02:10 036 1 gusting 5 27.8
2020-Aug-13 02:05 067 0 gusting 2 28.3
2020-Aug-13 02:01 032 0 gusting 2 28.3
2020-Aug-13 01:56 032 0 gusting 5 28.3
2020-Aug-13 01:50 034 2 gusting 6 28.3
2020-Aug-13 01:40 017 3 gusting 6 28.9
2020-Aug-13 01:36 041 2 gusting 6 29.4
2020-Aug-13 01:31 026 1 gusting 4 29.4
2020-Aug-13 01:26 019 0 gusting 3 29.4
2020-Aug-13 01:25 019 0 gusting 3 29.4
2020-Aug-13 01:16 350 0 gusting 3 29.4
2020-Aug-13 01:10 350 0 gusting 3 29.4
2020-Aug-13 01:05 051 0 gusting 2 28.9
2020-Aug-13 01:01 051 28.9
2020-Aug-13 00:55 28.9
2020-Aug-13 00:46 29.4
2020-Aug-13 00:40 29.4
2020-Aug-13 00:35 051 29.4
2020-Aug-13 00:31 29.4
2020-Aug-13 00:30 051 29.4
2020-Aug-13 00:20 30.0
2020-Aug-13 00:17 051 30.0
2020-Aug-13 00:11 051 30.0
2020-Aug-13 00:05 051 30.0
2020-Aug-12 23:55 051 30.0
2020-Aug-12 23:50 051 30.0
2020-Aug-12 23:47 051 0 gusting 1 30.0
2020-Aug-12 23:41 30.0
2020-Aug-12 23:35 30.0
2020-Aug-12 23:30 30.0
2020-Aug-12 23:25 30.0
2020-Aug-12 23:20 051 30.0
2020-Aug-12 23:16 051 0 gusting 3 30.6
2020-Aug-12 23:15 051 0 gusting 3 30.6
2020-Aug-12 23:05 161 0 gusting 1 30.6
2020-Aug-12 23:01 179 30.6
2020-Aug-12 22:55 179 30.6
2020-Aug-12 22:50 179 30.6
2020-Aug-12 22:46 179 0 gusting 1 30.6
2020-Aug-12 22:40 179 0 gusting 1 30.6
2020-Aug-12 22:31 179 30.6
2020-Aug-12 22:26 179 0 gusting 5 30.6
2020-Aug-12 22:20 188 0 gusting 2 30.6
2020-Aug-12 22:16 30.0
2020-Aug-12 22:15 244 30.0
2020-Aug-12 22:05 30.0
2020-Aug-12 22:02 257 29.4
2020-Aug-12 21:55 146 29.4
2020-Aug-12 21:50 146 28.9
2020-Aug-12 21:40 28.9
2020-Aug-12 21:35 28.3
2020-Aug-12 21:31 146 28.3
2020-Aug-12 21:25 146 28.3
2020-Aug-12 21:20 28.3
2020-Aug-12 21:10 146 0 gusting 3 27.8
2020-Aug-12 21:05 131 1 gusting 3 27.8
2020-Aug-12 21:02 094 27.8
2020-Aug-12 20:56 27.8
2020-Aug-12 20:55 094 0 gusting 1 27.8
2020-Aug-12 20:45 094 27.8
2020-Aug-12 20:41 094 27.8
2020-Aug-12 20:35 094 0 gusting 3 27.8
2020-Aug-12 20:31 090 1 gusting 6 27.8
2020-Aug-12 20:25 076 2 gusting 9 27.2
2020-Aug-12 20:20 129 1 gusting 12 26.7
2020-Aug-12 20:16 110 3 gusting 17 27.2
2020-Aug-12 20:10 333 8 gusting 17 28.3
2020-Aug-12 20:06 137 5 gusting 19 29.4
2020-Aug-12 20:05 145 5 gusting 19 29.4
2020-Aug-12 19:55 172 6 gusting 13 31.7
2020-Aug-12 19:51 144 5 gusting 12 33.3
2020-Aug-12 19:46 088 0 gusting 1 33.9
2020-Aug-12 19:41 045 33.9
2020-Aug-12 19:40 045 0 gusting 2 33.9
2020-Aug-12 19:31 029 1 gusting 6 34.4
2020-Aug-12 19:25 360 2 gusting 5 34.4
2020-Aug-12 19:20 348 2 gusting 4 34.4
2020-Aug-12 19:16 360 0 gusting 4 34.4
2020-Aug-12 19:15 013 0 gusting 4 34.4
2020-Aug-12 19:05 049 0 gusting 3 34.4
2020-Aug-12 19:01 278 0 gusting 4 34.4
2020-Aug-12 18:55 330 1 gusting 4 34.4
2020-Aug-12 18:51 34.4
2020-Aug-12 18:46 311 0 gusting 6 33.9
2020-Aug-12 18:45 311 0 gusting 6 33.9
2020-Aug-12 18:35 298 1 gusting 6 33.9
2020-Aug-12 18:32 005 1 gusting 6 34.4
2020-Aug-12 18:26 281 1 gusting 6 33.9
2020-Aug-12 18:21 256 1 gusting 6 33.9
2020-Aug-12 18:20 311 1 gusting 6 33.9
2020-Aug-12 18:10 255 0 gusting 3 33.9
2020-Aug-12 18:06 188 0 gusting 3 33.3
2020-Aug-12 18:02 33.3
2020-Aug-12 17:56 208 0 gusting 3 33.3
2020-Aug-12 17:55 208 0 gusting 3 33.3
2020-Aug-12 17:47 245 33.3
2020-Aug-12 17:40 246 33.9
2020-Aug-12 17:35 34.4
2020-Aug-12 17:31 149 0 gusting 6 34.4
2020-Aug-12 17:30 149 34.4
2020-Aug-12 17:21 119 0 gusting 4 33.9
2020-Aug-12 17:16 144 1 gusting 6 33.3
2020-Aug-12 17:11 144 1 gusting 6 33.3
2020-Aug-12 17:06 075 0 gusting 4 33.3
2020-Aug-12 17:02 076 1 gusting 4 32.8
2020-Aug-12 16:56 048 1 gusting 4 33.3
2020-Aug-12 16:51 039 0 gusting 6 33.3
2020-Aug-12 16:46 092 1 gusting 6 33.3
2020-Aug-12 16:40 073 1 gusting 6 33.3
2020-Aug-12 16:35 096 0 gusting 7 33.9
2020-Aug-12 16:26 130 1 gusting 5 33.9
2020-Aug-12 16:20 122 1 gusting 4 33.3
2020-Aug-12 16:16 063 1 gusting 6 33.3
2020-Aug-12 16:11 33.3
2020-Aug-12 16:06 115 2 gusting 6 33.3
2020-Aug-12 16:01 157 1 gusting 6 33.3
2020-Aug-12 15:56 131 1 gusting 6 33.3
2020-Aug-12 15:51 142 1 gusting 6 33.3
2020-Aug-12 15:50 145 1 gusting 6 33.3
2020-Aug-12 15:41 146 1 gusting 5 33.3
2020-Aug-12 15:36 128 2 gusting 6 32.8
2020-Aug-12 15:32 123 1 gusting 6 32.8
2020-Aug-12 15:26 150 0 gusting 6 32.8
2020-Aug-12 15:21 126 0 gusting 6 32.8
2020-Aug-12 15:18 138 2 gusting 6 32.8
2020-Aug-12 15:10 130 1 gusting 6 32.8
2020-Aug-12 15:05 119 1 gusting 6 32.8
2020-Aug-12 14:55 155 2 gusting 6 32.2
2020-Aug-12 14:50 136 1 gusting 6 32.2
2020-Aug-12 14:48 144 2 gusting 6 32.2
2020-Aug-12 14:41 136 1 gusting 4 32.2
2020-Aug-12 14:36 145 1 gusting 5 31.7
2020-Aug-12 14:32 178 1 gusting 6 31.7
2020-Aug-12 14:25 103 3 gusting 6 31.7
2020-Aug-12 14:18 157 2 gusting 6 31.7
2020-Aug-12 14:10 142 1 gusting 5 31.7
2020-Aug-12 14:05 154 1 gusting 6 31.1
2020-Aug-12 14:01 095 2 gusting 6 31.1
2020-Aug-12 13:56 148 2 gusting 6 31.1
2020-Aug-12 13:50 122 2 gusting 6 31.1
2020-Aug-12 13:47 142 1 gusting 3 30.6
2020-Aug-12 13:45 142 1 gusting 3 30.6
2020-Aug-12 13:40 143 0 gusting 4 30.6
2020-Aug-12 13:31 144 0 gusting 3 30.0
2020-Aug-12 13:26 144 0 gusting 2 29.4
2020-Aug-12 13:21 144 0 gusting 3 29.4
2020-Aug-12 13:16 144 0 gusting 3 29.4
2020-Aug-12 13:10 144 0 gusting 3 29.4
2020-Aug-12 13:05 144 1 gusting 3 29.4
2020-Aug-12 13:01 144 0 gusting 3 28.9
2020-Aug-12 12:56 148 0 gusting 4 28.9
2020-Aug-12 12:50 153 0 gusting 4 28.3
2020-Aug-12 12:46 159 0 gusting 4 28.3
2020-Aug-12 12:40 159 1 gusting 4 27.8
2020-Aug-12 12:36 27.2
2020-Aug-12 12:35 163 27.2
2020-Aug-12 12:30 163 1 gusting 4 27.2
2020-Aug-12 12:25 164 1 gusting 4 26.7
2020-Aug-12 12:16 164 26.1
2020-Aug-12 12:10 164 25.6
2020-Aug-12 12:05 25.6
2020-Aug-12 12:01 25.6
2020-Aug-12 11:56 25.6
2020-Aug-12 11:50 25.0
2020-Aug-12 11:47 164 25.0
2020-Aug-12 11:40 164 0 gusting 3 25.0
2020-Aug-12 11:36 164 0 gusting 3 25.0
2020-Aug-12 11:31 171 0 gusting 1 25.0
2020-Aug-12 11:26 171 24.4
2020-Aug-12 11:20 171 24.4
2020-Aug-12 11:16 171 24.4
2020-Aug-12 11:11 171 0 gusting 3 24.4
2020-Aug-12 11:05 24.4
2020-Aug-12 11:03 171 0 gusting 3 24.4
2020-Aug-12 10:56 24.4
2020-Aug-12 10:55 171 24.4
2020-Aug-12 10:46 24.4
2020-Aug-12 10:41 171 24.4
2020-Aug-12 10:36 24.4
2020-Aug-12 10:33 171 24.4
2020-Aug-12 10:26 171 24.4
2020-Aug-12 10:25 171 24.4
2020-Aug-12 10:16 24.4
2020-Aug-12 10:10 172 24.4
2020-Aug-12 10:06 171 24.4
2020-Aug-12 10:02 172 24.4
2020-Aug-12 09:56 24.4
2020-Aug-12 09:55 172 24.4
2020-Aug-12 09:46 24.4
2020-Aug-12 09:40 24.4
2020-Aug-12 09:36 171 24.4
2020-Aug-12 09:32 24.4
2020-Aug-12 09:25 171 24.4
2020-Aug-12 09:20 171 24.4
2020-Aug-12 09:16 24.4
2020-Aug-12 09:11 172 24.4
2020-Aug-12 09:05 171 24.4
2020-Aug-12 09:01 172 24.4
2020-Aug-12 08:56 171 24.4
2020-Aug-12 08:50 171 24.4
2020-Aug-12 08:46 172 0 gusting 3 24.4
2020-Aug-12 08:45 172 0 gusting 2 24.4
2020-Aug-12 08:40 171 0 gusting 2 24.4
2020-Aug-12 08:31 24.4
2020-Aug-12 08:25 172 0 gusting 3 24.4
2020-Aug-12 08:20 172 24.4
2020-Aug-12 08:17 171 24.4
2020-Aug-12 08:10 172 0 gusting 4 24.4
2020-Aug-12 08:02 179 0 gusting 2 24.4
2020-Aug-12 07:56 179 24.4
2020-Aug-12 07:50 179 24.4
2020-Aug-12 07:46 24.4
2020-Aug-12 07:41 24.4
2020-Aug-12 07:35 179 24.4
2020-Aug-12 07:32 179 24.4
2020-Aug-12 07:26 24.4
2020-Aug-12 07:21 24.4
2020-Aug-12 07:16 24.4
2020-Aug-12 07:10 179 24.4
2020-Aug-12 07:05 24.4
2020-Aug-12 07:02 24.4
2020-Aug-12 06:56 24.4
2020-Aug-12 06:51 179 24.4
2020-Aug-12 06:50 179 24.4
2020-Aug-12 06:40 24.4
2020-Aug-12 06:35 24.4
2020-Aug-12 06:31 179 24.4
2020-Aug-12 06:26 179 24.4
2020-Aug-12 06:21 24.4
2020-Aug-12 06:20 179 24.4
2020-Aug-12 06:11 179 24.4
2020-Aug-12 06:05 24.4
2020-Aug-12 06:01 24.4
2020-Aug-12 05:55 24.4
2020-Aug-12 05:51 180 24.4
2020-Aug-12 05:46 24.4
2020-Aug-12 05:40 24.4
2020-Aug-12 05:31 180 24.4
2020-Aug-12 05:25 180 0 gusting 2 24.4
2020-Aug-12 05:20 180 24.4
2020-Aug-12 05:17 180 24.4
2020-Aug-12 05:15 180 24.4
2020-Aug-12 05:06 24.4
2020-Aug-12 05:01 24.4
2020-Aug-12 04:55 24.4
2020-Aug-12 04:51 180 24.4
2020-Aug-12 04:48 180 24.4
2020-Aug-12 04:41 24.4
2020-Aug-12 04:35 24.4
2020-Aug-12 04:31 24.4
2020-Aug-12 04:26 180 24.4
2020-Aug-12 04:21 180 24.4
2020-Aug-12 04:16 24.4
2020-Aug-12 04:10 24.4
2020-Aug-12 04:06 24.4
2020-Aug-12 04:01 24.4
2020-Aug-12 03:56 24.4
2020-Aug-12 03:51 24.4
2020-Aug-12 03:46 23.9
2020-Aug-12 03:40 23.9
2020-Aug-12 03:36 23.9
2020-Aug-12 03:31 23.9
2020-Aug-12 03:25 180 23.9
2020-Aug-12 03:21 23.9
2020-Aug-12 03:20 180 23.9
2020-Aug-12 03:10 180 23.9
2020-Aug-12 03:05 180 0 gusting 2 24.4
2020-Aug-12 03:03 180 0 gusting 2 24.4
2020-Aug-12 02:55 180 0 gusting 2 24.4
2020-Aug-12 02:47 24.4
2020-Aug-12 02:40 24.4
2020-Aug-12 02:36 24.4
2020-Aug-12 02:33 190 24.4
2020-Aug-12 02:25 24.4
2020-Aug-12 02:17 24.4
2020-Aug-12 02:11 24.4
2020-Aug-12 02:05 24.4
2020-Aug-12 02:01 24.4
2020-Aug-12 01:55 23.9
2020-Aug-12 01:50 23.9
2020-Aug-12 01:46 23.9
2020-Aug-12 01:41 23.9
2020-Aug-12 01:35 23.9
2020-Aug-12 01:31 23.9
2020-Aug-12 01:25 23.9
2020-Aug-12 01:21 185 23.9
2020-Aug-12 01:17 185 23.9
2020-Aug-12 01:11 23.9
2020-Aug-12 01:06 185 23.9
2020-Aug-12 01:01 185 23.9
2020-Aug-12 00:56 23.9
2020-Aug-12 00:50 23.9
2020-Aug-12 00:46 184 0 gusting 4 23.9
2020-Aug-12 00:41 186 1 gusting 3 23.9
2020-Aug-12 00:36 124 23.9
2020-Aug-12 00:32 124 0 gusting 2 23.9
2020-Aug-12 00:26 121 0 gusting 4 23.3
2020-Aug-12 00:25 121 23.3
2020-Aug-12 00:20 022 1 gusting 4 23.3
2020-Aug-12 00:11 150 0 gusting 2 23.3
2020-Aug-12 00:06 148 0 gusting 5 23.3
2020-Aug-12 00:01 157 0 gusting 5 23.9
2020-Aug-11 23:55 157 0 gusting 6 23.9
2020-Aug-11 23:46 092 2 gusting 9 24.4
2020-Aug-11 23:40 098 3 gusting 10 25.0
2020-Aug-11 23:35 078 4 gusting 10 25.6
2020-Aug-11 23:31 101 5 gusting 9 26.1
2020-Aug-11 23:25 091 4 gusting 10 26.7
2020-Aug-11 23:16 069 4 gusting 13 27.8
2020-Aug-11 23:11 049 6 gusting 13 29.4
2020-Aug-11 23:05 049 5 gusting 11 30.6
2020-Aug-11 23:01 049 4 gusting 8 31.1
2020-Aug-11 23:00 063 3 gusting 7 31.1
2020-Aug-11 22:55 015 3 gusting 6 31.1
2020-Aug-11 22:46 355 3 gusting 7 30.6
2020-Aug-11 22:40 005 2 gusting 8 31.1
2020-Aug-11 22:35 027 3 gusting 8 31.1
2020-Aug-11 22:31 022 0 gusting 7 31.1
2020-Aug-11 22:26 346 1 gusting 6 30.6
2020-Aug-11 22:20 281 2 gusting 6 30.6
2020-Aug-11 22:18 296 0 gusting 4 30.6
2020-Aug-11 22:11 352 1 gusting 6 30.6
2020-Aug-11 22:10 013 1 gusting 5 30.6
2020-Aug-11 22:05 009 1 gusting 6 30.6
2020-Aug-11 21:56 306 2 gusting 6 31.1
2020-Aug-11 21:50 327 1 gusting 6 31.1
2020-Aug-11 21:47 315 2 gusting 7 31.1
2020-Aug-11 21:40 330 2 gusting 7 31.7
2020-Aug-11 21:36 313 1 gusting 6 32.2
2020-Aug-11 21:35 287 1 gusting 6 31.7
2020-Aug-11 21:30 360 2 gusting 5 31.7
2020-Aug-11 21:20 301 1 gusting 6 31.7
2020-Aug-11 21:17 322 2 gusting 6 32.2
2020-Aug-11 21:10 038 1 gusting 7 33.3
2020-Aug-11 21:05 304 1 gusting 9 33.9
2020-Aug-11 20:55 246 1 gusting 6 34.4
2020-Aug-11 20:50 255 2 gusting 6 33.9
2020-Aug-11 20:47 244 1 gusting 6 34.4
2020-Aug-11 20:41 263 2 gusting 6 34.4
2020-Aug-11 20:40 242 1 gusting 6 34.4
2020-Aug-11 20:35 263 1 gusting 6 35.0
2020-Aug-11 20:26 262 2 gusting 6 35.0
2020-Aug-11 20:20 252 0 gusting 4 35.0
2020-Aug-11 20:17 209 1 gusting 4 35.0
2020-Aug-11 20:11 229 1 gusting 8 35.0
2020-Aug-11 20:10 178 1 gusting 8 35.0
2020-Aug-11 20:01 330 1 gusting 6 35.6
2020-Aug-11 19:55 239 0 gusting 6 35.0
2020-Aug-11 19:50 261 1 gusting 6 35.0
2020-Aug-11 19:46 252 2 gusting 7 34.4
2020-Aug-11 19:40 198 1 gusting 7 34.4
2020-Aug-11 19:35 258 1 gusting 5 34.4
2020-Aug-11 19:25 163 0 gusting 6 33.9
2020-Aug-11 19:21 154 1 gusting 6 33.9
2020-Aug-11 19:16 221 0 gusting 3 34.4
2020-Aug-11 19:10 226 0 gusting 4 35.0
2020-Aug-11 19:05 135 0 gusting 4 35.0
2020-Aug-11 18:55 194 0 gusting 2 34.4
2020-Aug-11 18:50 005 33.9
2020-Aug-11 18:46 005 1 gusting 5 33.9
2020-Aug-11 18:40 009 2 gusting 5 33.9
2020-Aug-11 18:35 015 1 gusting 6 33.9
2020-Aug-11 18:31 017 1 gusting 6 33.9
2020-Aug-11 18:25 011 1 gusting 6 34.4
2020-Aug-11 18:20 34.4
2020-Aug-11 18:16 044 1 gusting 4 33.9
2020-Aug-11 18:10 039 1 gusting 4 33.9
2020-Aug-11 18:05 044 1 gusting 6 33.9
2020-Aug-11 17:55 341 2 gusting 6 33.9
2020-Aug-11 17:50 33.3
2020-Aug-11 17:46 036 3 gusting 6 33.3
2020-Aug-11 17:40 009 1 gusting 5 33.3
2020-Aug-11 17:36 009 0 gusting 5 33.3
2020-Aug-11 17:33 022 2 gusting 6 33.3
2020-Aug-11 17:25 341 1 gusting 6 33.3
2020-Aug-11 17:20 013 2 gusting 4 33.3
2020-Aug-11 17:17 028 2 gusting 6 33.3
2020-Aug-11 17:11 010 2 gusting 6 33.3
2020-Aug-11 17:06 352 2 gusting 6 33.3
2020-Aug-11 17:01 346 3 gusting 6 33.3
2020-Aug-11 17:00 355 3 gusting 6 33.3
2020-Aug-11 16:50 054 3 gusting 7 33.3
2020-Aug-11 16:46 044 2 gusting 6 33.3
2020-Aug-11 16:40 016 1 gusting 6 32.8
2020-Aug-11 16:36 026 1 gusting 6 32.8
2020-Aug-11 16:31 352 1 gusting 6 32.8
2020-Aug-11 16:25 005 0 gusting 5 32.2
2020-Aug-11 16:20 040 2 gusting 6 32.2
2020-Aug-11 16:16 031 2 gusting 6 32.8
2020-Aug-11 16:10 360 1 gusting 6 32.8
2020-Aug-11 16:05 005 1 gusting 5 32.8
2020-Aug-11 16:02 005 1 gusting 7 32.8
2020-Aug-11 15:55 053 3 gusting 7 32.8
2020-Aug-11 15:46 026 0 gusting 3 32.8
2020-Aug-11 15:40 32.2
2020-Aug-11 15:35 021 0 gusting 4 31.7
2020-Aug-11 15:32 030 0 gusting 3 31.7
2020-Aug-11 15:25 038 1 gusting 3 31.7
2020-Aug-11 15:20 036 1 gusting 4 31.7
2020-Aug-11 15:10 047 1 gusting 4 32.2
2020-Aug-11 15:05 046 1 gusting 4 32.2
2020-Aug-11 15:02 069 1 gusting 4 31.7
2020-Aug-11 14:55 31.7
2020-Aug-11 14:46 096 0 gusting 3 32.2
2020-Aug-11 14:40 090 1 gusting 4 32.2
2020-Aug-11 14:36 148 31.7
2020-Aug-11 14:32 064 0 gusting 4 31.7
2020-Aug-11 14:30 063 0 gusting 4 31.7
2020-Aug-11 14:20 31.7
2020-Aug-11 14:16 32.2
2020-Aug-11 14:10 113 0 gusting 3 31.7
2020-Aug-11 14:05 113 1 gusting 3 31.7
2020-Aug-11 14:01 113 0 gusting 5 31.7